GW0143 Weather Reports


time (UTC)temp
C
wind
direction
speed
KPH
gust
KPH
rain 1hr
cm
rain 24hr
cm
rain mn
cm
humidity
%
barometer
mb
20240723043551 9 0.0 0.0 0.00 0.05 0.05 84
20240723042531 9 0.0 0.0 0.00 0.05 0.05 83
20240723041531 10 0.0 0.0 0.00 0.05 0.05 82
20240723040532 10 0.0 0.0 0.00 0.05 0.05 81
20240723035532 11 0.0 0.0 0.00 0.05 0.05 80
20240723034517 11 0.0 0.0 0.05 0.05 0.05 77
20240723033532 11 0.0 0.0 0.05 0.05 0.05 80
20240723032532 11 0.0 0.0 0.05 0.05 0.05 79
20240723031533 11 0.0 0.0 0.05 0.05 0.05 80
20240723030553 12 0.0 0.0 0.05 0.05 0.05 76
20240723025518 12 0.0 0.0 0.05 0.05 0.05 74
20240723024518 13 0.0 0.0 0.00 0.00 0.00 67
20240723023518 13 0.0 0.0 0.00 0.00 0.00 65
20240723022518 13 0.0 0.0 0.00 0.00 0.00 65
20240723021518 14 0.0 0.0 0.00 0.00 0.00 66
20240723020539 15 0.0 0.0 0.00 0.00 0.00 61
20240723015519 14 0.0 0.0 0.00 0.00 0.00 62
20240723014519 14 0.0 0.0 0.00 0.00 0.00 63
20240723013519 15 0.0 0.0 0.00 0.00 0.00 60
20240723012520 15 0.0 0.0 0.00 0.00 0.00 57
20240723011520 16 0.0 0.0 0.00 0.00 0.00 56
20240723010520 16 0.0 0.0 0.00 0.00 0.00 54
20240723005520 17 0.0 0.0 0.00 0.00 0.00 51
20240723004521 17 0.0 0.0 0.00 0.00 0.00 51
20240723003520 18 0.0 0.0 0.00 0.00 0.00 49
20240723002521 18 0.0 0.0 0.00 0.00 0.00 46
20240723001521 18 0.0 0.0 0.00 0.00 0.00 48
20240723000521 18 0.0 0.0 0.00 0.00 0.00 48
20240722235522 18 0.0 0.0 0.00 0.03 0.00 47
20240722234542 18 0.0 0.0 0.00 0.10 0.00 47
20240722233522 18 0.0 0.0 0.00 0.10 0.00 47
20240722232542 19 0.0 0.0 0.00 0.10 0.00 44
20240722231522 20 0.0 0.0 0.00 0.10 0.00 43
20240722230523 20 0.0 0.0 0.00 0.10 0.00 44
20240722225523 20 0.0 0.0 0.00 0.10 0.00 41
20240722224523 20 0.0 0.0 0.00 0.10 0.00 42
20240722223543 20 0.0 0.0 0.00 0.10 0.00 42
20240722222524 20 0.0 0.0 0.00 0.10 0.00 42
20240722221524 20 0.0 0.0 0.00 0.10 0.00 44
20240722220524 20 0.0 0.0 0.00 0.10 0.00 45
20240722215524 19 0.0 0.0 0.00 0.10 0.00 45
20240722214524 20 0.0 0.0 0.00 0.10 0.00 44
20240722213524 18 0.0 0.0 0.00 0.10 0.00 46
20240722212525 18 0.0 0.0 0.00 0.10 0.00 48
20240722211525 19 0.0 0.0 0.00 0.10 0.00 45
20240722210525 19 0.0 0.0 0.00 0.10 0.00 42
20240722205525 19 0.0 0.0 0.00 0.10 0.00 42
20240722204525 19 0.0 0.0 0.00 0.10 0.00 44
20240722203526 19 0.0 0.0 0.00 0.10 0.00 45
20240722202526 18 0.0 0.0 0.00 0.10 0.00 47
20240722201526 17 0.0 0.0 0.00 0.33 0.00 49
20240722200526 18 0.0 0.0 0.00 0.66 0.00 49
20240722195526 18 0.0 0.0 0.00 0.66 0.00 47
20240722194527 18 0.0 0.0 0.00 0.66 0.00 42
20240722193547 18 0.0 0.0 0.00 0.69 0.00 45
20240722192527 19 0.0 0.0 0.00 0.71 0.00 45
20240722191527 19 0.0 0.0 0.00 0.71 0.00 44
20240722190527 18 0.0 0.0 0.00 0.86 0.00 46
20240722185527 18 0.0 0.0 0.00 0.86 0.00 44
20240722184528 18 0.0 0.0 0.00 0.91 0.00 45
20240722183528 18 0.0 0.0 0.00 0.91 0.00 46
20240722182529 18 0.0 0.0 0.00 0.91 0.00 47
20240722181528 18 0.0 0.0 0.00 0.91 0.00 46
20240722180529 18 0.0 0.0 0.00 0.91 0.00 46
20240722175529 18 0.0 0.0 0.00 0.91 0.00 45
20240722174529 17 0.0 0.0 0.00 0.91 0.00 47
20240722173549 17 0.0 0.0 0.00 0.91 0.00 51
20240722172550 17 0.0 0.0 0.00 0.91 0.00 52
20240722171530 17 0.0 0.0 0.00 0.91 0.00 53
20240722170530 16 0.0 0.0 0.00 0.91 0.00 54
20240722165550 16 0.0 0.0 0.00 0.91 0.00 57
20240722164531 16 0.0 0.0 0.00 0.91 0.00 59
20240722163530 15 0.0 0.0 0.00 0.91 0.00 61
20240722162531 15 0.0 0.0 0.00 0.91 0.00 62
20240722161531 15 0.0 0.0 0.00 0.91 0.00 62
20240722160531 14 0.0 0.0 0.00 0.91 0.00 65
20240722155532 14 0.0 0.0 0.00 0.91 0.00 68
20240722154532 13 0.0 0.0 0.00 0.91 0.00 70
20240722153537 13 0.0 0.0 0.00 0.91 0.00 71
20240722152517 13 0.0 0.0 0.00 0.91 0.00 72
20240722151517 12 0.0 0.0 0.00 0.91 0.00 74
20240722150518 12 0.0 0.0 0.00 0.91 0.00 75
20240722145518 12 0.0 0.0 0.00 0.91 0.00 76
20240722144518 11 0.0 0.0 0.00 0.91 0.00 78
20240722143518 11 0.0 0.0 0.00 0.91 0.00 80
20240722142519 11 0.0 0.0 0.00 0.91 0.00 79
20240722141518 11 0.0 0.0 0.00 0.91 0.00 78
20240722140519 10 0.0 0.0 0.00 0.91 0.00 82
20240722135539 10 0.0 0.0 0.00 0.91 0.00 83
20240722134539 10 0.0 0.0 0.00 0.91 0.00 83
20240722133539 8 0.0 0.0 0.00 0.91 0.00 84
20240722132519 7 0.0 0.0 0.00 0.91 0.00 86
20240722131516 6 0.0 0.0 0.00 0.91 0.00 87
20240722130516 6 0.0 0.0 0.00 0.91 0.00 88
20240722125517 5 0.0 0.0 0.00 0.91 0.00 89
20240722124517 3 0.0 0.0 0.00 0.91 0.00 89
20240722123540 3 0.0 0.0 0.00 0.91 0.00 89
20240722122521 3 0.0 0.0 0.00 0.91 0.00 90
20240722121538 2 0.0 0.0 0.00 0.91 0.00 90
20240722120518 2 0.0 0.0 0.00 0.91 0.00 90
20240722115518 3 0.0 0.0 0.00 0.91 0.00 90
20240722114518 2 0.0 0.0 0.00 0.91 0.00 90
20240722113518 3 0.0 0.0 0.00 0.91 0.00 89
20240722112519 3 0.0 0.0 0.00 0.91 0.00 89
20240722111519 3 0.0 0.0 0.00 0.91 0.00 89
20240722110519 3 0.0 0.0 0.00 0.91 0.00 89
20240722105519 3 0.0 0.0 0.00 0.91 0.00 89
20240722104519 3 0.0 0.0 0.00 0.91 0.00 89
20240722103519 3 0.0 0.0 0.00 0.91 0.00 89
20240722102520 3 0.0 0.0 0.00 0.91 0.00 88
20240722101527 4 0.0 0.0 0.00 0.91 0.00 88
20240722100520 5 0.0 0.0 0.00 0.91 0.00 86
20240722095521 5 0.0 0.0 0.00 0.91 0.00 88
20240722094541 5 0.0 0.0 0.00 0.91 0.00 87
20240722093521 4 0.0 0.0 0.00 0.91 0.00 88
20240722092521 4 0.0 0.0 0.00 0.91 0.00 87
20240722091541 5 0.0 0.0 0.00 0.91 0.00 86
20240722090521 5 0.0 0.0 0.00 0.91 0.00 86
20240722085522 4 0.0 0.0 0.00 0.91 0.00 88
20240722084542 4 0.0 0.0 0.00 0.91 0.00 88
20240722083542 4 0.0 0.0 0.00 0.91 0.00 88
20240722082522 5 0.0 0.0 0.00 0.91 0.00 86
20240722081523 5 0.0 0.0 0.00 0.91 0.00 86
20240722080523 5 0.0 0.0 0.00 0.91 0.00 87
20240722075523 5 0.0 0.0 0.00 0.91 0.00 87
20240722074523 5 0.0 0.0 0.00 0.91 0.00 87
20240722073523 5 0.0 0.0 0.00 0.91 0.00 88
20240722072523 5 0.0 0.0 0.00 0.91 0.00 87
20240722071524 5 0.0 0.0 0.00 0.91 0.00 87
20240722070524 5 0.0 0.0 0.00 0.91 0.00 85
20240722065524 5 0.0 0.0 0.00 0.91 0.00 88
20240722064524 5 0.0 0.0 0.00 0.91 0.00 87
20240722063524 6 0.0 0.0 0.00 0.91 0.00 85
20240722062544 6 0.0 0.0 0.00 0.91 0.00 85
20240722061524 6 0.0 0.0 0.00 0.91 0.00 86
20240722060525 6 0.0 0.0 0.00 0.91 0.00 87
20240722055525 6 0.0 0.0 0.00 0.91 0.91 86
20240722054525 6 0.0 0.0 0.00 0.91 0.91 86
20240722053526 6 0.0 0.0 0.00 0.91 0.91 87
20240722052526 6 0.0 0.0 0.00 0.91 0.91 86
20240722051546 6 0.0 0.0 0.00 0.91 0.91 88
20240722050526 6 0.0 0.0 0.00 0.91 0.91 87
20240722045527 6 0.0 0.0 0.00 0.91 0.91 88
20240722044526 7 0.0 0.0 0.00 0.91 0.91 88